This demonstration page uses our WeatherBlox Daily Observations layout. Learn more.

Left ArrowRight Arrow

41.55636, -103.73856

Hourly Observations for December 20, 2021

Temp ( °F °C ) Dew Point ( °F °C ) Humidity (%) Winds ( mph kmh ) Pressure ( in mb ) Visibility ( mi km ) Precip ( " mm )
12:58 am 00:58 Mostly Cloudy 31 -0.5 3 -16.1 30 30 SW 9 15 29.97 1015 10 16 0.00 0.00
1:58 am 01:58 Mostly Clear 34 1 4 -15.8 28 28 SSW 7 11 29.97 1015 10 16 0.00 0.00
2:58 am 02:58 Mostly Clear 33 0.8 4 -15.4 29 29 E 10 17 30.01 1016 10 16 0.00 0.00
3:58 am 03:58 Partly Cloudy 34 0.9 6 -14.2 32 32 E 8 13 30.04 1017 10 16 0.00 0.00
4:58 am 04:58 Mostly Cloudy 32 -0.2 9 -12.9 38 38 ENE 6 9 30.07 1018 10 16 0.00 0.00
5:58 am 05:58 Mostly Cloudy 22 -5.3 16 -9 76 76 E 8 13 30.15 1021 10 16 0.00 0.00
6:58 am 06:58 Mostly Cloudy 21 -6 19 -7.5 89 89 ENE 9 15 30.19 1023 10 16 0.00 0.00
7:58 am 07:58 Mostly Cloudy with Mist and Fog 24 -4.4 23 -5 96 96 ENE 10 17 30.20 1023 1 2 0.00 0.00
8:58 am 08:58 Mostly Cloudy with Mist and Fog 25 -4.1 24 -4.6 96 96 ENE 8 13 30.23 1024 4 6 0.00 0.00
9:58 am 09:58 Mostly Cloudy with Light Snow Showers 23 -4.9 22 -5.5 96 96 NE 10 17 30.28 1025 2 3 0.00 0.00
10:58 am 10:58 Mostly Cloudy with Light Snow Showers 22 -5.3 22 -5.7 97 97 ENE 7 11 30.28 1025 3 5 0.00 0.00
11:58 am 11:58 Cloudy 23 -5.1 22 -5.7 96 96 E 7 11 30.26 1025 7 11 0.00 0.00
12:58 pm 12:58 Cloudy 25 -4.1 22 -5.8 88 88 SSE 6 9 30.24 1024 10 16 0.00 0.00
1:58 pm 13:58 Cloudy 26 -3.1 22 -5.6 83 83 S 10 17 30.21 1023 10 16 0.00 0.00
2:58 pm 14:58 Partly Cloudy 29 -1.8 22 -5.3 77 77 SSE 8 13 30.18 1022 10 16 0.00 0.00
3:58 pm 15:58 Sunny 28 -2.1 22 -5.6 77 77 SE 10 17 30.16 1022 10 16 0.00 0.00
4:58 pm 16:58 Clear 27 -2.8 20 -6.6 75 75 SSW 10 17 30.16 1021 10 16 0.00 0.00
5:58 pm 17:58 Clear 27 -2.9 20 -6.7 75 75 SSW 15 24 30.15 1021 10 16 0.00 0.00
6:58 pm 18:58 Clear 28 -2.3 18 -7.8 66 66 WSW 8 13 30.15 1021 10 16 0.00 0.00
7:58 pm 19:58 Clear 29 -1.9 17 -8.6 61 61 SW 16 26 30.12 1020 10 16 0.00 0.00
8:58 pm 20:58 Clear 29 -1.7 17 -8.2 62 62 SSW 25 41 30.10 1019 10 16 0.00 0.00
9:58 pm 21:58 Clear 31 -0.5 16 -8.8 54 54 SW 13 20 30.06 1018 10 16 0.00 0.00
10:58 pm 22:58 Clear 32 0.1 12 -11 43 43 SSW 13 20 30.06 1018 10 16 0.00 0.00
11:58 pm 23:58 Clear 41 5.1 6 -14.2 24 24 WSW 16 26 29.98 1015 10 16 0.00 0.00

Powered by AerisWeather